When you browse on this site, cookies collect data to enhance your experience and personalize the content and advertising you see.
Visit our Privacy Policy to learn more. By continuing to use the site, you agree to this use of cookies and data.
  • In Hungary
  • List of Countries
  • For 7 days
  • Water Temperature
  • Weather Map
  • News
  • Weather Widgets
  • user-avatar
    Login

    Hourly Weather Tlyacuda

    Today, 14 October, Monday

    Time Temperature Precipitation Wind Pressure Humidity
    00:00 +8°C° 0 mm 1 mps 633 mmHg 63%
    01:00 +8°C° 0 mm 1 mps 633 mmHg 61%
    02:00 +8°C° 0 mm 1 mps 633 mmHg 58%
    03:00 +8°C° 0 mm 1 mps 633 mmHg 55%
    04:00 +8°C° 0 mm 1 mps 633 mmHg 52%
    05:00 +8°C° 0 mm 1 mps 633 mmHg 49%
    06:00 +8°C° 0 mm 1 mps 633 mmHg 46%
    07:00 +11°C° 0 mm 1 mps 634 mmHg 41%
    08:00 +13°C° 0 mm 0 mps 635 mmHg 36%
    09:00 +16°C° 0 mm 0 mps 637 mmHg 31%
    10:00 +19°C° 0 mm 1 mps 637 mmHg 31%
    11:00 +20°C° 0 mm 1 mps 637 mmHg 31%
    12:00 +21°C° 0 mm 1 mps 637 mmHg 31%
    13:00 +20°C° 0 mm 1 mps 636 mmHg 33%
    14:00 +20°C° 0 mm 1 mps 636 mmHg 36%
    15:00 +20°C° 0 mm 1 mps 636 mmHg 38%
    16:00 +16°C° 0 mm 1 mps 635 mmHg 48%
    17:00 +13°C° 0 mm 1 mps 634 mmHg 57%
    18:00 +11°C° 0 mm 1 mps 633 mmHg 66%
    19:00 +10°C° 0 mm 1 mps 633 mmHg 63%
    20:00 +10°C° 0 mm 1 mps 633 mmHg 60%
    21:00 +10°C° 0 mm 1 mps 633 mmHg 57%
    22:00 +9°C° 0 mm 1 mps 633 mmHg 52%
    23:00 +9°C° 0 mm 1 mps 632 mmHg 48%

    Tomorrow, 15 October, Tuesday

    Time Temperature Precipitation Wind Pressure Humidity
    00:00 +9°C° 0 mm 1 mps 632 mmHg 44%
    01:00 +9°C° 0 mm 1 mps 632 mmHg 42%
    02:00 +9°C° 0 mm 1 mps 632 mmHg 40%
    03:00 +7°C° 0 mm 2 mps 631 mmHg 38%
    04:00 +8°C° 0 mm 1 mps 631 mmHg 37%
    05:00 +8°C° 0 mm 1 mps 631 mmHg 36%
    06:00 +8°C° 0 mm 1 mps 631 mmHg 35%
    07:00 +11°C° 0 mm 1 mps 632 mmHg 32%
    08:00 +14°C° 0 mm 1 mps 633 mmHg 29%
    09:00 +16°C° 0 mm 1 mps 634 mmHg 27%
    10:00 +19°C° 0 mm 1 mps 634 mmHg 26%
    11:00 +20°C° 0 mm 1 mps 634 mmHg 25%
    12:00 +21°C° 0 mm 1 mps 634 mmHg 24%
    13:00 +21°C° 0 mm 1 mps 634 mmHg 26%
    14:00 +21°C° 0 mm 1 mps 633 mmHg 28%
    15:00 +20°C° 0 mm 1 mps 633 mmHg 29%
    16:00 +18°C° 0 mm 1 mps 632 mmHg 38%
    17:00 +14°C° 0 mm 1 mps 631 mmHg 47%
    18:00 +11°C° 0 mm 0 mps 630 mmHg 56%
    19:00 +12°C° 0 mm 1 mps 630 mmHg 54%
    20:00 +12°C° 0 mm 1 mps 630 mmHg 52%
    21:00 +11°C° 0 mm 1 mps 630 mmHg 50%
    22:00 +11°C° 0 mm 1 mps 630 mmHg 48%
    23:00 +11°C° 0 mm 1 mps 630 mmHg 46%

    Day after tomorrow, 16 October, Wednesday

    Time Temperature Precipitation Wind Pressure Humidity
    00:00 +11°C° 0 mm 1 mps 630 mmHg 44%
    01:00 +10°C° 0 mm 1 mps 629 mmHg 43%
    02:00 +10°C° 0 mm 1 mps 629 mmHg 41%
    03:00 +10°C° 0 mm 1 mps 629 mmHg 39%
    04:00 +10°C° 0 mm 1 mps 629 mmHg 38%
    05:00 +10°C° 0 mm 1 mps 629 mmHg 37%
    06:00 +10°C° 0 mm 1 mps 629 mmHg 36%
    07:00 +12°C° 0 mm 1 mps 630 mmHg 33%
    08:00 +14°C° 0 mm 0 mps 632 mmHg 30%
    09:00 +16°C° 0 mm 0 mps 633 mmHg 27%
    10:00 +17°C° 0 mm 0 mps 633 mmHg 26%
    11:00 +20°C° 0 mm 1 mps 633 mmHg 26%
    12:00 +21°C° 0 mm 1 mps 633 mmHg 25%
    13:00 +21°C° 0 mm 1 mps 633 mmHg 28%
    14:00 +19°C° 0 mm 2 mps 632 mmHg 31%
    15:00 +19°C° 0 mm 2 mps 632 mmHg 34%
    16:00 +16°C° 0 mm 1 mps 631 mmHg 42%
    17:00 +14°C° 0 mm 1 mps 631 mmHg 51%
    18:00 +11°C° 0 mm 0 mps 630 mmHg 60%
    19:00 +10°C° 0 mm 0 mps 630 mmHg 60%
    20:00 +11°C° 0 mm 1 mps 630 mmHg 60%
    21:00 +10°C° 0 mm 1 mps 630 mmHg 60%
    22:00 +10°C° 0 mm 1 mps 630 mmHg 60%
    23:00 +10°C° 0 mm 1 mps 630 mmHg 59%

    17 October, Thursday

    Time Temperature Precipitation Wind Pressure Humidity
    00:00 +9°C° 0 mm 1 mps 630 mmHg 58%
    01:00 +9°C° 0 mm 1 mps 630 mmHg 57%
    02:00 +9°C° 0 mm 1 mps 630 mmHg 57%
    03:00 +9°C° 0 mm 1 mps 630 mmHg 56%
    04:00 +8°C° 0 mm 1 mps 630 mmHg 57%
    05:00 +8°C° 0 mm 1 mps 630 mmHg 58%
    06:00 +8°C° 0 mm 1 mps 630 mmHg 59%
    07:00 +11°C° 0 mm 1 mps 631 mmHg 53%
    08:00 +13°C° 0 mm 1 mps 632 mmHg 47%
    09:00 +16°C° 0 mm 2 mps 633 mmHg 41%
    10:00 +17°C° 0 mm 2 mps 633 mmHg 39%
    11:00 +18°C° 0 mm 2 mps 633 mmHg 36%
    12:00 +19°C° 0 mm 2 mps 633 mmHg 33%
    13:00 +19°C° 0 mm 2 mps 633 mmHg 34%
    14:00 +18°C° 0 mm 2 mps 632 mmHg 36%
    15:00 +18°C° 0 mm 2 mps 632 mmHg 37%
    16:00 +16°C° 0 mm 1 mps 631 mmHg 47%
    17:00 +13°C° 0 mm 1 mps 630 mmHg 56%
    18:00 +11°C° 0 mm 1 mps 629 mmHg 66%
    19:00 +11°C° 0 mm 1 mps 629 mmHg 64%
    20:00 +10°C° 0 mm 1 mps 629 mmHg 63%
    21:00 +10°C° 0 mm 1 mps 629 mmHg 61%
    22:00 +10°C° 0 mm 1 mps 629 mmHg 60%
    23:00 +9°C° 0 mm 1 mps 629 mmHg 60%

    18 October, Friday

    Time Temperature Precipitation Wind Pressure Humidity
    00:00 +9°C° 0 mm 1 mps 628 mmHg 60%
    01:00 +9°C° 0 mm 1 mps 628 mmHg 61%
    02:00 +9°C° 0 mm 1 mps 628 mmHg 62%
    03:00 +9°C° 0 mm 1 mps 628 mmHg 63%
    04:00 +9°C° 0 mm 1 mps 628 mmHg 64%
    05:00 +9°C° 0 mm 1 mps 628 mmHg 65%
    06:00 +9°C° 0 mm 1 mps 628 mmHg 66%
    07:00 +12°C° 0 mm 1 mps 629 mmHg 58%
    08:00 +14°C° 0 mm 1 mps 629 mmHg 50%
    09:00 +16°C° 0 mm 0 mps 630 mmHg 42%
    10:00 +19°C° 0 mm 1 mps 631 mmHg 39%
    11:00 +20°C° 0 mm 1 mps 631 mmHg 35%
    12:00 +21°C° 0 mm 1 mps 631 mmHg 31%
    13:00 +21°C° 0 mm 1 mps 630 mmHg 33%
    14:00 +19°C° 0 mm 2 mps 630 mmHg 34%
    15:00 +19°C° 0 mm 2 mps 630 mmHg 36%
    16:00 +17°C° 0 mm 2 mps 629 mmHg 41%
    17:00 +15°C° 0 mm 2 mps 628 mmHg 47%
    18:00 +13°C° 0 mm 1 mps 628 mmHg 52%
    19:00 +12°C° 0 mm 1 mps 628 mmHg 50%
    20:00 +12°C° 0 mm 1 mps 628 mmHg 47%
    21:00 +12°C° 0 mm 1 mps 628 mmHg 44%
    22:00 +11°C° 0 mm 1 mps 628 mmHg 45%
    23:00 +11°C° 0 mm 1 mps 628 mmHg 46%

    19 October, Saturday

    Time Temperature Precipitation Wind Pressure Humidity
    00:00 +11°C° 0 mm 1 mps 628 mmHg 47%
    01:00 +10°C° 0 mm 1 mps 628 mmHg 47%
    02:00 +10°C° 0 mm 1 mps 628 mmHg 48%
    03:00 +9°C° 0 mm 0 mps 628 mmHg 49%
    04:00 +9°C° 0 mm 0 mps 628 mmHg 49%
    05:00 +9°C° 0 mm 0 mps 629 mmHg 49%
    06:00 +10°C° 0 mm 1 mps 629 mmHg 49%
    07:00 +12°C° 0 mm 1 mps 630 mmHg 50%
    08:00 +13°C° 0 mm 1 mps 630 mmHg 51%
    09:00 +14°C° 0 mm 1 mps 631 mmHg 53%
    10:00 +15°C° 0.1 mm 1 mps 631 mmHg 53%
    11:00 +16°C° 0.1 mm 1 mps 632 mmHg 54%
    12:00 +16°C° 0.1 mm 1 mps 632 mmHg 55%
    13:00 +16°C° 0.3 mm 1 mps 631 mmHg 59%
    14:00 +15°C° 0.3 mm 1 mps 631 mmHg 62%
    15:00 +15°C° 0.3 mm 1 mps 631 mmHg 66%
    16:00 +14°C° 0.2 mm 1 mps 631 mmHg 73%
    17:00 +13°C° 0.2 mm 1 mps 630 mmHg 81%
    18:00 +11°C° 0.2 mm 1 mps 630 mmHg 88%
    19:00 +11°C° 0.4 mm 1 mps 630 mmHg 90%
    20:00 +11°C° 0.4 mm 1 mps 630 mmHg 91%
    21:00 +11°C° 0.4 mm 1 mps 631 mmHg 93%
    22:00 +11°C° 1.2 mm 1 mps 631 mmHg 93%
    23:00 +10°C° 1.2 mm 1 mps 630 mmHg 93%
    Show more